Location: Moscow
(55.7500°N, 37.5830°E)
Time: 13:56:10
(UTC+03:00)

Vanguard 1 - Pass Details

Date: 03 December 2021
Orbit: 652 x 3830 km, 34.2° (Epoch: 25 January)

Event Time Altitude Azimuth Distance (km) Brightness Sun altitude
Exits shadow 01:31:22 26° 128° (SE) 5,127 13.5 -53.8°
Drops below altitude 10° 01:38:54 10° 108° (ESE) 5,857 14.0 -53.2°
Sets 01:43:17 0° 100° (E) 6,490 14.4 -52.9°
